• In Uzbekistan
  • List of Countries
  • For 7 days
  • Water Temperature
  • Satellite Maps
  • Weather Map
  • Weather Widgets
  • user-avatar
    Login

    Hourly Weather Mingachevir

    Today, 23 July, Tuesday

    Time Temperature Precipitation Wind Pressure Humidity
    00:00 +30°C° 0 mm 5 mps 749 mmHg 54%
    01:00 +29°C° 0 mm 5 mps 749 mmHg 54%
    02:00 +29°C° 0 mm 4 mps 749 mmHg 54%
    03:00 +29°C° 0 mm 3 mps 749 mmHg 54%
    04:00 +29°C° 0 mm 3 mps 749 mmHg 54%
    05:00 +29°C° 0 mm 3 mps 749 mmHg 54%
    06:00 +29°C° 0 mm 4 mps 749 mmHg 54%
    07:00 +32°C° 0 mm 4 mps 749 mmHg 49%
    08:00 +33°C° 0 mm 5 mps 749 mmHg 44%
    09:00 +35°C° 0 mm 6 mps 749 mmHg 39%
    10:00 +36°C° 0 mm 6 mps 748 mmHg 36%
    11:00 +39°C° 0 mm 6 mps 748 mmHg 33%
    12:00 +40°C° 0 mm 7 mps 748 mmHg 30%
    13:00 +40°C° 0 mm 7 mps 747 mmHg 29%
    14:00 +41°C° 0 mm 7 mps 746 mmHg 28%
    15:00 +41°C° 0 mm 8 mps 746 mmHg 28%
    16:00 +40°C° 0 mm 8 mps 746 mmHg 29%
    17:00 +39°C° 0 mm 8 mps 746 mmHg 31%
    18:00 +38°C° 0 mm 9 mps 746 mmHg 32%
    19:00 +35°C° 0 mm 8 mps 746 mmHg 37%
    20:00 +33°C° 0 mm 7 mps 746 mmHg 41%
    21:00 +30°C° 0 mm 7 mps 747 mmHg 46%
    22:00 +30°C° 0 mm 6 mps 747 mmHg 48%
    23:00 +29°C° 0 mm 5 mps 747 mmHg 50%

    Tomorrow, 24 July, Wednesday

    Time Temperature Precipitation Wind Pressure Humidity
    00:00 +28°C° 0 mm 4 mps 747 mmHg 52%
    01:00 +28°C° 0 mm 4 mps 747 mmHg 52%
    02:00 +27°C° 0 mm 4 mps 746 mmHg 53%
    03:00 +27°C° 0 mm 4 mps 746 mmHg 54%
    04:00 +27°C° 0 mm 3 mps 746 mmHg 54%
    05:00 +27°C° 0 mm 2 mps 746 mmHg 54%
    06:00 +28°C° 0 mm 2 mps 747 mmHg 54%
    07:00 +29°C° 0 mm 2 mps 746 mmHg 49%
    08:00 +31°C° 0 mm 2 mps 746 mmHg 43%
    09:00 +34°C° 0 mm 3 mps 746 mmHg 38%
    10:00 +35°C° 0 mm 3 mps 746 mmHg 36%
    11:00 +36°C° 0 mm 3 mps 745 mmHg 33%
    12:00 +37°C° 0 mm 3 mps 745 mmHg 30%
    13:00 +38°C° 0 mm 2 mps 744 mmHg 29%
    14:00 +39°C° 0 mm 2 mps 744 mmHg 28%
    15:00 +39°C° 0 mm 2 mps 744 mmHg 27%
    16:00 +39°C° 0 mm 2 mps 744 mmHg 28%
    17:00 +39°C° 0 mm 2 mps 744 mmHg 29%
    18:00 +39°C° 0 mm 2 mps 744 mmHg 30%
    19:00 +37°C° 0 mm 3 mps 744 mmHg 34%
    20:00 +35°C° 0 mm 4 mps 745 mmHg 38%
    21:00 +33°C° 0 mm 4 mps 745 mmHg 43%
    22:00 +32°C° 0 mm 4 mps 745 mmHg 47%
    23:00 +29°C° 0 mm 3 mps 746 mmHg 51%

    Day after tomorrow, 25 July, Thursday

    Time Temperature Precipitation Wind Pressure Humidity
    00:00 +28°C° 0 mm 3 mps 746 mmHg 55%
    01:00 +28°C° 0 mm 2 mps 746 mmHg 57%
    02:00 +27°C° 0 mm 1 mps 746 mmHg 59%
    03:00 +27°C° 0 mm 1 mps 746 mmHg 61%
    04:00 +27°C° 0 mm 1 mps 746 mmHg 59%
    05:00 +28°C° 0 mm 1 mps 746 mmHg 58%
    06:00 +29°C° 0 mm 2 mps 746 mmHg 57%
    07:00 +30°C° 0 mm 3 mps 746 mmHg 52%
    08:00 +33°C° 0 mm 4 mps 746 mmHg 47%
    09:00 +35°C° 0 mm 5 mps 746 mmHg 42%
    10:00 +36°C° 0 mm 4 mps 746 mmHg 39%
    11:00 +38°C° 0 mm 4 mps 745 mmHg 35%
    12:00 +40°C° 0 mm 4 mps 745 mmHg 31%
    13:00 +41°C° 0 mm 4 mps 745 mmHg 29%
    14:00 +42°C° 0 mm 4 mps 744 mmHg 27%
    15:00 +43°C° 0 mm 4 mps 744 mmHg 25%
    16:00 +43°C° 0 mm 4 mps 744 mmHg 25%
    17:00 +42°C° 0 mm 4 mps 744 mmHg 24%
    18:00 +42°C° 0 mm 4 mps 744 mmHg 24%
    19:00 +38°C° 0 mm 4 mps 745 mmHg 29%
    20:00 +36°C° 0 mm 4 mps 746 mmHg 35%
    21:00 +33°C° 0 mm 4 mps 746 mmHg 40%
    22:00 +31°C° 0 mm 3 mps 747 mmHg 44%
    23:00 +30°C° 0 mm 3 mps 747 mmHg 48%

    26 July, Friday

    Time Temperature Precipitation Wind Pressure Humidity
    00:00 +29°C° 0 mm 2 mps 747 mmHg 52%
    01:00 +28°C° 0 mm 2 mps 747 mmHg 52%
    02:00 +28°C° 0 mm 3 mps 747 mmHg 53%
    03:00 +27°C° 0 mm 3 mps 748 mmHg 53%
    04:00 +27°C° 0 mm 3 mps 748 mmHg 52%
    05:00 +27°C° 0 mm 4 mps 748 mmHg 52%
    06:00 +27°C° 0 mm 4 mps 748 mmHg 51%
    07:00 +29°C° 0 mm 4 mps 748 mmHg 46%
    08:00 +32°C° 0 mm 4 mps 748 mmHg 41%
    09:00 +33°C° 0 mm 5 mps 748 mmHg 36%
    10:00 +35°C° 0 mm 4 mps 748 mmHg 35%
    11:00 +36°C° 0 mm 3 mps 748 mmHg 33%
    12:00 +37°C° 0 mm 3 mps 747 mmHg 31%
    13:00 +38°C° 0 mm 3 mps 747 mmHg 30%
    14:00 +38°C° 0 mm 4 mps 747 mmHg 29%
    15:00 +40°C° 0 mm 4 mps 746 mmHg 29%
    16:00 +39°C° 0 mm 5 mps 746 mmHg 32%
    17:00 +38°C° 0 mm 7 mps 747 mmHg 35%
    18:00 +37°C° 0 mm 8 mps 747 mmHg 38%
    19:00 +34°C° 0 mm 8 mps 747 mmHg 44%
    20:00 +32°C° 0 mm 8 mps 748 mmHg 49%
    21:00 +29°C° 0 mm 7 mps 749 mmHg 54%
    22:00 +28°C° 0 mm 7 mps 749 mmHg 57%
    23:00 +28°C° 0 mm 6 mps 749 mmHg 59%

    27 July, Saturday

    Time Temperature Precipitation Wind Pressure Humidity
    00:00 +27°C° 0 mm 6 mps 749 mmHg 61%
    01:00 +27°C° 0 mm 5 mps 749 mmHg 60%
    02:00 +27°C° 0 mm 4 mps 749 mmHg 60%
    03:00 +26°C° 0 mm 3 mps 748 mmHg 59%
    04:00 +27°C° 0 mm 3 mps 748 mmHg 58%
    05:00 +27°C° 0 mm 3 mps 748 mmHg 57%
    06:00 +27°C° 0 mm 3 mps 748 mmHg 56%
    07:00 +29°C° 0 mm 4 mps 748 mmHg 50%
    08:00 +30°C° 0 mm 5 mps 748 mmHg 44%
    09:00 +33°C° 0 mm 6 mps 748 mmHg 38%
    10:00 +34°C° 0 mm 6 mps 747 mmHg 36%
    11:00 +35°C° 0 mm 6 mps 747 mmHg 34%
    12:00 +36°C° 0 mm 6 mps 747 mmHg 31%
    13:00 +37°C° 0 mm 5 mps 746 mmHg 31%
    14:00 +37°C° 0 mm 5 mps 746 mmHg 30%
    15:00 +37°C° 0 mm 5 mps 745 mmHg 29%
    16:00 +37°C° 0 mm 4 mps 745 mmHg 30%
    17:00 +37°C° 0 mm 3 mps 745 mmHg 31%
    18:00 +36°C° 0 mm 3 mps 745 mmHg 32%
    19:00 +34°C° 0 mm 4 mps 745 mmHg 35%
    20:00 +32°C° 0 mm 4 mps 746 mmHg 38%
    21:00 +29°C° 0 mm 5 mps 746 mmHg 41%
    22:00 +28°C° 0 mm 5 mps 746 mmHg 44%
    23:00 +27°C° 0 mm 4 mps 746 mmHg 47%

    28 July, Sunday

    Time Temperature Precipitation Wind Pressure Humidity
    00:00 +26°C° 0 mm 3 mps 746 mmHg 50%
    01:00 +26°C° 0 mm 3 mps 745 mmHg 52%
    02:00 +25°C° 0 mm 3 mps 745 mmHg 54%
    03:00 +25°C° 0 mm 2 mps 745 mmHg 57%
    04:00 +25°C° 0 mm 2 mps 745 mmHg 56%
    05:00 +26°C° 0 mm 2 mps 745 mmHg 55%
    06:00 +26°C° 0 mm 2 mps 745 mmHg 54%
    07:00 +28°C° 0 mm 3 mps 745 mmHg 48%
    08:00 +30°C° 0 mm 3 mps 745 mmHg 41%
    09:00 +33°C° 0 mm 4 mps 745 mmHg 35%
    10:00 +34°C° 0 mm 4 mps 744 mmHg 33%
    11:00 +35°C° 0 mm 4 mps 744 mmHg 31%
    12:00 +36°C° 0 mm 3 mps 743 mmHg 28%
    13:00 +37°C° 0 mm 3 mps 743 mmHg 27%
    14:00 +38°C° 0 mm 3 mps 742 mmHg 27%
    15:00 +38°C° 0 mm 3 mps 742 mmHg 26%
    16:00 +38°C° 0 mm 3 mps 742 mmHg 27%
    17:00 +37°C° 0 mm 3 mps 742 mmHg 28%
    18:00 +37°C° 0 mm 3 mps 742 mmHg 29%
    19:00 +35°C° 0 mm 3 mps 742 mmHg 32%
    20:00 +33°C° 0 mm 4 mps 743 mmHg 36%
    21:00 +30°C° 0 mm 5 mps 744 mmHg 40%
    22:00 +29°C° 0 mm 4 mps 744 mmHg 43%
    23:00 +28°C° 0 mm 3 mps 744 mmHg 47%
    Show more